Retour au catalogue

SL-12 DEB

ActifHEO
NORAD 29328·DEBRIS·🇷🇺 Russia

Lancé May 31, 1989 depuis Baikonur Cosmodrome

Loading…

Prochains Passages (prochaines 24 heures)

TLE

FraisSource: Space-Track

Époque: Sep 13, 2026, 22:24 UTC

1 29328U 89039AK  26256.93386927  .00000277  00000-0  52306-2 0  9995
2 29328  65.2846 165.3258 5450165  91.7543 356.6117  4.29098963314762

Suivez SL-12 DEB en temps réel avec AllMySat

Download on the App Store